Regional Weather Roundup
Issued by NWS Sterling, VA

Home | Current Version | Previous Version | Graphics & Text | Print | Product List | Glossary On
Versions: 1 2 3 4 5 6 7 8 9 10 11 12 13 14 15 16 17 18 19 20 21 22 23 24 25 26 27 28
000
ASUS41 KLWX 250910
RWRLWX

REGIONAL WEATHER ROUNDUP
NATIONAL WEATHER SERVICE BALTIMORE MD/WASHINGTON DC
500 AM EDT SAT OCT 25 2014

Note: "FAIR" indicates few or no clouds below 12,000 feet
with no significant weather and/or obstructions to visibility.
 TC=TEMPERATURE CELSIUS

 * =Non NWS site. Station does not report precipitation (e.g. rain,
    snow, etc.), thunder, or fog.

DCZ001-MDZ009-015-VAZ040>042-051-053>054-251000-
WASHINGTON METRO

CITY           SKY/WX    TMP DP  RH WIND       PRES   REMARKS
WASHINGTON NAT CLEAR     52  38  58 N5        29.96S
DULLES         CLEAR     48  38  68 NW8       29.96F
ANDREWS AFB    CLEAR     50  38  64 NW3       29.94F
FT BELVOIR     CLEAR     38  37  96 VRB2      29.95F
QUANTICO       CLEAR     43  40  89 NW6       29.97S
COLLEGE PARK*  CLEAR     43  41  93 CALM      29.94F
LEESBURG*      CLEAR     54  43  66 CALM      29.96F
MANASSAS*      CLEAR     37  37 100 CALM      29.96F
GAITHERSBURG*  CLEAR     43  36  75 CALM      29.99S

$$

MDZ006>007-011-014-251000-
BALTIMORE METRO

CITY           SKY/WX    TMP DP  RH WIND       PRES   REMARKS
BWI AIRPORT    CLEAR     46  38  73 W5        29.94S
MD SCIENCE CTR   N/A     51  38  60 MISG      29.93S
MARTIN STATE   CLEAR     45  43  93 CALM      29.95S
ANNAPOLIS      CLEAR     48  38  68 W3        29.94S
FORT MEADE*    CLEAR     37  36  93 CALM      29.96F

$$

MDZ012-015-019>023-251000-
MARYLAND EASTERN SHORE

CITY           SKY/WX    TMP DP  RH WIND       PRES   REMARKS
OCEAN CITY     CLEAR     49  40  71 NW9       29.91S
SALISBURY      CLEAR     50  40  68 NW3       29.92S
BAY BRIDGE AP*   N/A     52  41  66 W5        29.94S
CAMBRIDGE*     CLEAR     55  43  62 NW5       29.93S
EASTON*        CLEAR     51  45  80 CALM      29.97S

$$

MDZ017>025-251000-
SOUTHERN MARYLAND

CITY           SKY/WX    TMP DP  RH WIND       PRES   REMARKS
PATUXENT RIVER CLEAR     52  41  66 NW8       29.95R
ST INIGOES     CLEAR     52  37  56 NW3       29.94S
LEONARDTOWN*   CLEAR     41  36  81 CALM      29.97R

$$

MDZ003>005-251000-
NORTH CENTRAL MARYLAND

CITY           SKY/WX    TMP DP  RH WIND       PRES   REMARKS
FREDERICK*     FLURRIES  50  39  66 CALM      29.98S
HAGERSTOWN APT CLEAR     48  37  65 SW3       29.95F
WESTMINSTER*   CLEAR     50  39  66 W3        29.94S

$$

MDZ501>502-251000-
WESTERN MARYLAND

CITY           SKY/WX    TMP DP  RH WIND       PRES   REMARKS
OAKLAND*       CLOUDY    45  37  76 W12G18    29.99S
CUMBERLAND*    CLEAR     39  37  93 CALM      30.02S

$$

VAZ025>031-251000-
SHENANDOAH VALLEY

CITY           SKY/WX    TMP DP  RH WIND       PRES   REMARKS
WINCHESTER*    CLEAR     43  34  70 CALM      29.97S
FRONT ROYAL*   FAIR      43  36  75 S7        29.96F
LURAY*         FAIR      37  37 100 CALM      29.99F
NEW MARKET*    FAIR      33  32  97 CALM      29.99F
STAUNTON*      FAIR      32  29  90 CALM      30.02F
WAYNESBORO*    FAIR      33  32  95 CALM      30.00S

$$

WVZ021-048>050-054>055-251000-
EASTERN WEST VIRGINIA PANHANDLE

CITY           SKY/WX    TMP DP  RH WIND       PRES   REMARKS
MARTINSBURG    CLEAR     42  35  76 S3        29.96F
PETERSBURG*    CLEAR     32  31  95 CALM      30.01S

$$

VAZ036>039-050-251000-
CENTRAL FOOTHILLS

CITY           SKY/WX    TMP DP  RH WIND       PRES   REMARKS
CHARLOTTESVILL CLEAR     48  33  56 SW6       29.97S
CULPEPER*      CLEAR     34  34 100 CALM      29.98S
ORANGE*        CLEAR     36  34  93 CALM      29.98F
GORDONSVILLE*  FAIR      34  33  97 SW3       29.97S
WARRENTON*     FAIR      34  34 100 CALM      29.96S

$$

VAZ055>057-251000-
NORTH AND CENTRAL PIEDMONT

CITY           SKY/WX    TMP DP  RH WIND       PRES   REMARKS
FREDERICKSBRG* CLEAR     39  39 100 CALM      29.96F
STAFFORD*      CLEAR    N/A N/A N/A CALM      30.00S FOG

$$

NCZ024-NYZ072-PAZ021-071-VAZ022-071-251000-
OTHER REGIONAL OBSERVATIONS

CITY           SKY/WX    TMP DP  RH WIND       PRES   REMARKS
NEW YORK CITY  PTCLDY    53  36  52 VRB7      29.88S
PHILADELPHIA   CLEAR     48  36  63 W3        29.92R
PITTSBURGH     PTCLDY    49  40  71 SW3       29.96F
ROANOKE        CLEAR     46  37  71 SE3       30.03F
RICHMOND       CLEAR     43  39  86 CALM      29.97R
RALEIGH        PTCLDY    43  41  93 CALM      29.97S

$$

ANZ530>537-251000-
MARINE OBSERVATIONS

STATION/POSITION TIME  TEMP    WIND        PRES
                       AIR SEA DIR/SP/G
                 (UTC) (F)     (DEG/KT/KT) (MB)
THOMAS PT LIGHT  0900   53 61  300/  8/  9 1014.9S
BALT KEY BRIDGE  0900   53     230/  4/  5 1013.6S
COVE POINT       0900   58     350/ 17/ 19 1013.7S
LEWISETTA        0900   57 59  320/  7/  9 1013.8S
SOLOMONS ISLAND  0900      63                N/A
PINEY POINT      0900          350/ 11/ 12   N/A

$$




USA.gov is the U.S. government's official web portal to all federal, state and local government web resources and services.